This is the latest recevied weather packets stored in our database for station/object WV5G-13. If no packets are shown the sender has not sent any weather packets the latest 10 day(s).
| Time | Temp. | Humidity | Pressure | Rain* | Wind** | Luminosity | Snow |
|---|---|---|---|---|---|---|---|
| 1778160037 | 5° C | 97% | 1019.1 hPa | 0 mm | - | 84 W/m² | - |
| 1778159734 | 5° C | 97% | 1018.9 hPa | 0 mm | - | 70 W/m² | - |
| 1778159431 | 5° C | 97% | 1019 hPa | 0 mm | - | 68 W/m² | - |
| 1778159128 | 5° C | 97% | 1019.2 hPa | 0 mm | - | 58 W/m² | - |
| 1778158827 | 5° C | 97% | 1018.9 hPa | 0 mm | - | 52 W/m² | - |
| 1778158524 | 5° C | 97% | 1018.8 hPa | 0 mm | - | 50 W/m² | - |
| 1778158222 | 5° C | 97% | 1018.7 hPa | 0 mm | - | 59 W/m² | - |
| 1778157918 | 5° C | 97% | 1018.7 hPa | 0 mm | - | 49 W/m² | - |
| 1778157616 | 5° C | 97% | 1018.8 hPa | 0 mm | - | 40 W/m² | - |
| 1778157314 | 5° C | 97% | 1018.8 hPa | 0 mm | - | 29 W/m² | - |
| 1778157010 | 5° C | 97% | 1018.7 hPa | 0 mm | - | 23 W/m² | - |
| 1778156705 | 5° C | 97% | 1018.6 hPa | 0 mm | - | 21 W/m² | - |
| 1778156402 | 5° C | 96% | 1018.7 hPa | 0 mm | - | 24 W/m² | - |
| 1778156097 | 5° C | 96% | 1018.7 hPa | 0 mm | - | 13 W/m² | - |
| 1778155793 | 5° C | 96% | 1018.6 hPa | 0 mm | - | 9 W/m² | - |
| 1778155490 | 5° C | 96% | 1018.6 hPa | 0 mm | - | 6 W/m² | - |
| 1778155186 | 5° C | 96% | 1018.8 hPa | 0 mm | - | 5 W/m² | - |
| 1778154883 | 5° C | 96% | 1018.5 hPa | 0 mm | - | 3 W/m² | - |
| 1778154578 | 5° C | 96% | 1018.5 hPa | 0 mm | - | 2 W/m² | - |
| 1778154275 | 5° C | 96% | 1018.4 hPa | 0 mm | - | 1 W/m² | - |
| 1778153972 | 5° C | 96% | 1018.4 hPa | 0 mm | - | 0 W/m² | - |
| 1778153669 | 5° C | 96% | 1018.4 hPa | 0 mm | - | 0 W/m² | - |
| 1778153367 | 5° C | 96% | 1018.6 hPa | 0 mm | - | 0 W/m² | - |
| 1778153064 | 5° C | 96% | 1018.6 hPa | 0 mm | - | 0 W/m² | - |
| 1778152761 | 5° C | 96% | 1018.6 hPa | 0 mm | - | 0 W/m² | - |
* Rain latest hour (hover to see other rain measurements)
** Current wind speed in m/s (hover to see current wind gust speed)